World > North America > United States > Illinois

Bonus, Illinois Regional Weather

Lat: 42.25N, Lon: 88.74W
Wx Zone: ILZ004Web Search
Bonus Weather Warning NWS WEATHER ALERT FOR THE BONUS, IL AREA - Issued: 1242 PM CDT Fri May 7 2021 Bonus Weather Warning  

If you are on your PC, you can easily pass this page to your phone by scanning the QR Code near the bottom with your camera.

Feedback


°F Click to change Bonus hourly weather to Imperial units.Click to change Bonus hourly weather to Metric units. °C
Bonus Weather Map
UTC Time: 5/7/2021, 18:59
Your Time:

Bonus, IL Regional Weather

Expires:202105071900;;745648
ASUS43 KLOT 071809
RWRIL 

ILLINOIS REGIONAL WEATHER ROUNDUP
NATIONAL WEATHER SERVICE CHICAGO/ROMEOVILLE IL
100 PM CDT FRI MAY 07 2021

NOTE: "FAIR" INDICATES FEW OR NO CLOUDS BELOW 12,000 FEET WITH NO
SIGNIFICANT WEATHER AND/OR OBSTRUCTIONS TO VISIBILITY.

* THESE STATIONS ARE NOT UNDER NWS QUALITY CONTROL. THEY ALSO MAY NOT
  REPORT WEATHER SUCH AS PRECIPITATION OR FOG.


ILZ003-004-008-010-011-017-018-071900-
NORTH CENTRAL ILLINOIS
  
CITY           SKY/WX    TMP DP  RH WIND       PRES   REMARKS
ROCKFORD       PTSUNNY   59  30  33 NW17G28   30.03S                  
6HR MIN TEMP:  49; 6HR MAX TEMP:  59;                                

FREEPORT*      PTSUNNY   55  31  39 N21G28    30.04S                  
ROCHELLE*      MOSUNNY   57  31  37 NW14G23   30.02S                  
DE KALB*       MOSUNNY   56  31  37 N16G23    30.01R                  
PERU*          MOSUNNY   62  37  40 NW20      30.00R                  
$$


SKY/WX - Weather  TMP - Temperature  DP - Dew Point  RH - Relative Humidity
WIND - Wind Direction/Speed PRES - Barometric Pressure VSB - Visibility
WCI - Wind Chill Index E13G22 Wind - East Wind 13 mph/Gusts of 22 mph